Regional Weather Roundup
Issued by NWS Upton, NY

Current Version | Previous Version | Graphics & Text | Print | Product List | Glossary Off
Versions: 1 2 3 4 5 6 7 8 9 10 11 12 13 14 15 16 17 18 19 20 21 22 23 24 25 26

000
ASUS41 KOKX 181308
RWROKX

REGIONAL WEATHER ROUNDUP
NATIONAL WEATHER SERVICE NEW YORK NY
800 AM EST WED JAN 18 2017

NOTE: "FAIR" INDICATES FEW OR NO CLOUDS BELOW 12,000 FEET WITH NO
SIGNIFICANT WEATHER AND/OR OBSTRUCTIONS TO VISIBILITY.

NYZ071-072-176-178-NJZ106-104-181400-
NEW YORK CITY METRO AREA

CITY           SKY/WX    TMP DP  RH WIND       PRES   REMARKS
Central Park   CLOUDY    40  39  97 NE6       29.94R
Wall St Helipt CLOUDY    41  39  93 NE14      29.92R
Bronx Bot Gard NOT AVBL
LaGuardia APRT CLOUDY    41  38  89 NE10      29.92R
Kennedy INTL   DRIZZLE   42  38  85 NE13      29.91S FOG
Breezy Point     N/A     39 N/A N/A N9          N/A  WCI  33
Newark/Liberty CLOUDY    40  38  93 N10       29.92R FOG     WCI  33
Teterboro      CLOUDY    40  37  89 N7        29.92R FOG
$$

NYZ177-179-078>081-181400-
LONG ISLAND NEW YORK

CITY           SKY/WX    TMP DP  RH WIND       PRES   REMARKS
Jones Beach      N/A     39 N/A N/A NE14        N/A  WCI  31
Matinecock PT  NOT AVBL
Farmingdale    CLOUDY    41  39  93 NE12      29.91R
MacArthur/ISP  CLOUDY    40  40 100 NE13      29.89R WCI  32
Shirley        CLOUDY    40  40 100 NE7       29.90S
Westhampton    CLOUDY    40  38  93 NE12      29.90R WCI  33
Southampton    NOT AVBL
Bridgehampton  NOT AVBL
East Hampton   CLOUDY    40  38  95 NE7       29.89R WCI  35
Montauk          N/A     41  40  96 NE13G23   29.89F
$$

NYZ052-065-067-181400-
HUDSON VALLEY

CITY           SKY/WX    TMP DP  RH WIND       PRES   REMARKS
White Plains   DRIZZLE   38  37  97 VRB3      29.91R FOG
Newburgh       FOG       34  34 100 CALM      29.94R VSB 1/2
Montgomery     MIX PCPN  35  34  96 NE3       29.92S VSB 1
Poughkeepsie   CLOUDY    34  33  96 CALM      29.94R FOG
Albany         DRZL/FOG  33  31  92 N3        29.96R VSB 1
$$

NJZ001-105-106-008-010-013-015-019>022-104-181400-
NEW JERSEY

CITY           SKY/WX    TMP DP  RH WIND       PRES   REMARKS
Newark/Liberty CLOUDY    40  38  93 N10       29.92R FOG     WCI  33
Teterboro      CLOUDY    40  37  89 N7        29.92R FOG
Caldwell       CLOUDY    37  36  96 CALM      29.93R FOG
Somerville     CLOUDY    39  36  89 N3        29.90S
Linden         CLOUDY    39  38  93 CALM      29.91S FOG
Sussex         LGT RAIN  34  34 100 CALM      29.93R FOG
Andover          N/A     33  33 100 CALM      29.92S
Trenton        CLOUDY    39  38  96 N5        29.91R
Millville      FOG       42  42 100 N9        29.89S VSB 1/4
Atlantic City  FOG       43  41  93 N10       29.89R VSB 1/4
Wrightstown    CLOUDY    39  39 100 N7        29.88R FOG     WCI  34
Toms River     CLOUDY    40  39  97 N9        29.90R FOG     WCI  34
Belmar         FOG       39  39 100 N7        29.90S VSB 3/4 WCI  34
$$

PAZ047>061-062-071-181400-
EASTERN PENNSYLVANIA

CITY           SKY/WX    TMP DP  RH WIND       PRES   REMARKS
Philadelphia   CLOUDY    41  38  89 N12       29.92R
Allentown      CLOUDY    37  34  89 CALM      29.93R
Scranton       LGT RAIN  35  35 100 E3        29.90R FOG
$$

CTZ002-004>006-009-010-012-RIZ004-006-007-MAZ004-011-015-181400-
SOUTHERN NEW ENGLAND
 IN CT

CITY           SKY/WX    TMP DP  RH WIND       PRES   REMARKS
Bradley INTL   DRIZZLE   35  34  96 N9        29.96S FOG     WCI  28
Hartford       LGT RAIN  36  35  96 N7        29.96R FOG     WCI  30
Danbury        CLOUDY    36  35  96 VRB3      29.94R FOG
Wtrbury/Oxford LGT RAIN  36  30  80 E9        29.92R FOG     WCI  29
Bridgeport     CLOUDY    40  36  86 N8        29.93R WCI  34
Meriden        CLOUDY    37  34  89 N8        29.94R FOG     WCI  31
New Haven      LGT RAIN  37  36  96 N12       29.92R FOG     WCI  29
Chester        CLOUDY    37  37 100 N6        29.91R FOG     WCI  33
Groton         CLOUDY    40  37  89 NE12      29.91R WCI  33
Wilimantic     CLOUDY    38  36  92 N7        29.94R WCI  33

 IN RI

CITY           SKY/WX    TMP DP  RH WIND       PRES   REMARKS
Providence     LGT RAIN  38  36  92 NE10      29.95S FOG     WCI  31
Block Island   NOT AVBL
Westerly       CLOUDY    40  36  86 NE9       29.91F FOG     WCI  34
 IN MA

CITY           SKY/WX    TMP DP  RH WIND       PRES   REMARKS
Boston         CLOUDY    38  37  97 E14       30.00R WCI  30
Worcester      SNOW      31  30  96 NE8       29.94R VSB 1/4 WCI  23
Westfield      MIX PCPN  33  33 100 N7        29.97R FOG     WCI  27
Provincetown   LGT RAIN  39  37  92 E10       29.97F FOG     WCI  32
Nantucket      CLOUDY    42  39  89 E14G26    29.90R FOG
$$

ANZ330-335-338-340-345-350-353-355-181400-
COASTAL MARINE OBSERVATIONS


STATION/POSITION TIME  SKY/WX   TEMP    WIND        PRES    VSBY  WAVE
                                AIR SEA DIR/SP/G                  HT/PER
                 (UTC)          (F)     (DEG/KT/KT) (MB)    (MI)  (FT/S)
NY HARB ENTRANCE 1150            42 44  340/ 14/ 16 1011.8          3/ 5
20 S FIRE ISLAND 1150            44 45   40/ 14/ 17 1010.2          4/ 5
GREAT SOUTH BAY  NOT AVBL
23 SSW MONTAUK P 1150            45 48   60/ 19/ 23 1011.1          6/ 6
15 E BARNEGAT LI 1230               45                N/A           3/ 4
HUDSON CANYON    1150            50 53              1009.8          3/ 5
KINGS POINT      1230            39 38              1012.4
EXECUTION ROCKS  1245            40      40/ 12/ 16   N/A
CENTRAL LI SOUND 1230            40      40/ 14/ 17   N/A           3/ 5
EASTERN LI SOUND NOT AVBL
ROBBINS REEF     1230            39     340/  5/  6 1013.0
$$


>>>>>>>>>>>>>>>>>>>>>>>>>>>> KEY <<<<<<<<<<<<<<<<<<<<<<<<<<<
>                                                          <
>     SKY/WX - Sky Condition/Present Weather               <
>     TMP    - Temperature in Fahrenheit                   <
>     DP     - Dew Point in Fahrenheit                     <
>     RH     - Relative Humidity in Percent                <
>     WIND   - Direction (from) and Speed in MPH           <
>     PRES   - Mean Sea Level Pressure (inches of Hg)      <
>     WCI    - Wind Chill Index                            <
>     VSB    - VISIBILITY IN MILES                         <
>     HX     - HEAT INDEX                                  <
>     TC     - TEMPERATURE IN CELSIUS                      <
>     VRB    - VARIABLE WIND DIRECTION                     <
>                                                          <
>>>>>>>>>>>>>>>>>>>>>>>>>>>> KEY <<<<<<<<<<<<<<<<<<<<<<<<<<<




USA.gov is the U.S. government's official web portal to all federal, state and local government web resources and services.